User: anonymous   Login
Location: Unspecified
(43.4354°N, 0.0000°E)
Time: 19:43:31
(UTC+00:00)
Language:

BEESAT - Orbit

View from above orbital plane
View from above orbital plane
View from above satellite
View from above satellite

Ground track
Ground track

The orbit data is extracted from the following two-line orbital elements,

1 35933U 09051C   19202.44025364  .00000045  00000-0  21073-4 0  9996
2 35933  98.5935  11.1491 0007063  81.1425 279.0572 14.56381608521651
Epoch (UTC): 21 July 2019 10:33:57
Eccentricity: 0.0007063
inclination: 98.5935°
perigee height: 700 km
apogee height: 710 km
right ascension of ascending node: 11.1491°
argument of perigee: 81.1425°
revolutions per day: 14.56381608
mean anomaly at epoch: 279.0572°
orbit number at epoch: 52165

The dashed part of the orbit path shows where the satellite is in the earth's shadow,  

DLR